Regional Weather Roundup
Issued by NWS

Home | Current Version | Previous Version | Text Only | Print | Product List | Glossary On
Versions: 1 2 3 4 5 6 7 8 9 10 11 12 13 14 15 16 17 18 19 20 21 22 23 24 25 26 27 28 29 30 31 32 33 34 35 36 37 38 39 40 41 42 43 44 45 46 47 48 49 50
000
ASUS46 KPQR 031110
RWROR

OREGON REGIONAL WEATHER ROUNDUP
NATIONAL WEATHER SERVICE PORTLAND OR
400 AM PDT THU SEP 03 2015

NOTE: "FAIR" INDICATES FEW OR NO CLOUDS BELOW 12,000 FEET WITH
NO SIGNIFICANT WEATHER AND/OR OBSTRUCTIONS TO VISIBILITY.

ORZ001>013-031200-
NORTHWEST OREGON


CITY           SKY/WX    TMP DP  RH WIND       PRES   REMARKS
ASTORIA        CLEAR     47  46  97 SE5       30.00R
NEWPORT        CLEAR     48  48 100 CALM      30.05R
PORTLAND       PTCLDY    54  50  86 CALM      30.01R
VANCOUVER WA   CLEAR     50  47  89 CALM      30.01R
SCAPPOOSE      CLEAR     47  44  90 W3        30.00R
HILLSBORO      CLEAR     46  43  89 CALM      30.01R
AURORA         MOCLDY    53  49  86 CALM      30.02R
MCMINNVILLE    CLEAR     51  48  89 NW3       30.02R
SALEM          CLOUDY    55  50  83 CALM      30.01R
CORVALLIS      CLOUDY    50  46  87 S3        30.03S
EUGENE         PTCLDY    49  46  90 S3        30.03R
$$

ORZ021-028-031200-
SOUTHWEST OREGON


CITY           SKY/WX    TMP DP  RH WIND       PRES   REMARKS
NORTH BEND     PTCLDY    54  54 100 SE6       30.04S
BROOKINGS      CLEAR     54  51  89 CALM      29.99R
ROSEBURG       CLOUDY    52  48  86 CALM      30.03R
SEXTON SUMMIT  FOG       41  41 100 N10       30.01R VSB 3/4
MEDFORD        MOCLDY    56  44  64 N5        30.00R
$$

ORZ014>016-041-031200-
COLUMBIA GORGE


CITY           SKY/WX    TMP DP  RH WIND       PRES   REMARKS
TROUTDALE      CLEAR     52  50  93 E3        30.01R
THE DALLES     CLEAR     52  43  71 SW7       29.97R
$$

ORZ029>031-041-044-049-050-061>064-502-503-505>511-031200-
EASTERN OREGON


CITY           SKY/WX    TMP DP  RH WIND       PRES   REMARKS
REDMOND        CLOUDY    45  37  73 SW6       29.99R
BEND           MOCLDY    45  37  76 CALM      30.00S
PRINEVILLE     CLOUDY    45  39  81 W5        29.99R
KLAMATH FALLS  CLOUDY    52  38  58 NW14      29.97R
LAKEVIEW       CLOUDY    45  41  87 N15         N/A
HERMISTON      CLEAR     53  44  71 SW7       29.94R
PENDLETON      CLOUDY    54  41  61 W6        29.95R
JOHN DAY       CLOUDY    50  42  72 NW3       29.97S
MEACHAM        CLOUDY    42  38  85 CALM      29.97S
LA GRANDE      MOCLDY    52  34  50 NW7       29.96R
BAKER CITY     CLOUDY    47  43  86 NW9       29.95R
BURNS          LGT RAIN  49  43  80 CALM      29.96R
ROME             N/A     53  38  56 NE9       29.92R
ONTARIO        MOCLDY    59  42  53 NW18      29.88R
$$



USA.gov is the U.S. government's official web portal to all federal, state and local government web resources and services.